Location: Risskov
(56.1972°N, 10.2480°E)
Time: 11:56:54
(UTC+00:00)

Cosmos 2151 - Pass Details

Date: 05 July 2020
Orbit: 580 x 602 km, 82.5° (Epoch: 06 August)

Event Time Altitude Azimuth Distance (km) Brightness Sun altitude
Exits shadow 21:47:15 11° 148° (SSE) 1,883 4.9 -8.5°
Maximum altitude 21:50:48 29° 89° (E) 1,104 4.2 -8.7°
Drops below altitude 10° 21:54:31 10° 30° (NNE) 1,943 6.2 -8.9°
Sets 21:56:55 0° 19° (NNE) 2,846 7.3 -9.0°
